Date String (YYYY-MM-DD hh:mm:ss) UTC,Instrument flags,Ambient pressure (hPa),Sample flow (lpm),Bypass flow (lpm),Sample temperature (°C),Ambient temperature (°C),ASC tube jacket temperature (°C),LED temperature (°C),Box temperature (°C),Sample RH (%),Span deviation,Mass concentration (μg/m³),Mass concentration (μg/m³),Mass concentration (μg/m³)
DateTimeUTC,F1_M11,P_M11,Q1_M11,Q2_M11,T1_M11,T2_M11,T3_M11,T4_M11,T5_M11,U1_M11,ZSPAN_M11,X0_M11,X2_M11,X1_M11
2021-10-25 02:00:00,,0823.7,5.00,0.00,29.9,29.2,00.0,39.0,31.7,11.3,0000.0,0010.66,0003.33,0001.88
2021-10-25 02:01:00,,0823.7,5.01,0.00,29.9,29.2,00.0,39.0,31.7,11.2,0000.0,0011.24,0003.35,0001.88
2021-10-25 02:02:00,,0823.7,5.00,0.00,29.9,29.2,00.0,39.0,31.7,11.3,0000.0,0011.51,0003.38,0001.89
2021-10-25 02:03:00,,0823.7,5.01,0.00,29.9,29.2,00.0,39.0,31.7,11.3,0000.0,0010.85,0003.33,0001.88
2021-10-25 02:04:00,,0823.7,5.00,0.00,29.9,29.2,00.0,39.0,31.7,11.3,0000.0,0011.20,0003.27,0001.88
2021-10-25 02:05:00,,0823.7,5.00,0.00,29.9,29.1,00.0,39.0,31.7,11.3,0000.0,0011.66,0003.24,0001.87
2021-10-25 02:06:00,,0823.7,5.00,0.00,29.9,29.1,00.0,39.0,31.7,11.3,0000.0,0011.36,0003.19,0001.85
2021-10-25 02:07:00,,0823.7,5.00,0.00,29.9,29.1,00.0,39.0,31.7,11.3,0000.0,0011.40,0003.20,0001.85
2021-10-25 02:08:00,,0823.7,5.01,0.00,29.9,29.1,00.0,39.0,31.7,11.3,0000.0,0011.46,0003.22,0001.85
2021-10-25 02:09:00,,0823.7,5.00,0.00,29.9,29.1,00.0,39.0,31.6,11.3,0000.0,0010.85,0003.23,0001.86
2021-10-25 02:10:00,,0823.8,5.00,0.00,29.9,29.1,00.0,39.0,31.7,11.3,0000.0,0010.34,0003.26,0001.87
2021-10-25 02:11:00,,0823.8,5.00,0.00,29.9,29.2,00.0,39.0,31.7,11.3,0000.0,0010.22,0003.22,0001.87
2021-10-25 02:12:00,,0823.8,4.99,0.00,29.9,29.2,00.0,39.0,31.7,11.2,0000.0,0010.49,0003.23,0001.87
2021-10-25 02:13:00,,0823.8,5.01,0.00,29.9,29.1,00.0,39.0,31.7,11.3,0000.0,0010.16,0003.21,0001.87
2021-10-25 02:14:00,,0823.8,5.01,0.00,29.9,29.1,00.0,39.0,31.7,11.3,0000.0,0010.63,0003.24,0001.87
2021-10-25 02:15:00,,0823.8,4.99,0.00,29.9,29.1,00.0,39.0,31.7,11.3,0000.0,0010.30,0003.30,0001.87
2021-10-25 02:16:00,,0823.9,5.00,0.00,29.9,29.1,00.0,39.0,31.6,11.3,0000.0,0009.72,0003.30,0001.89
2021-10-25 02:17:00,,0823.9,4.99,0.00,29.9,29.1,00.0,39.0,31.6,11.3,0000.0,0009.89,0003.30,0001.88
2021-10-25 02:18:00,,0824.0,4.99,0.00,29.9,29.1,00.0,39.0,31.6,11.3,0000.0,0009.85,0003.33,0001.89
2021-10-25 02:19:00,,0824.0,5.01,0.00,29.9,29.1,00.0,39.0,31.6,11.3,0000.0,0009.63,0003.33,0001.88
2021-10-25 02:20:00,,0824.0,5.00,0.00,29.9,29.1,00.0,39.0,31.6,11.3,0000.0,0009.55,0003.32,0001.88
2021-10-25 02:21:00,,0824.0,4.99,0.00,29.9,29.1,00.0,39.0,31.6,11.3,0000.0,0009.55,0003.25,0001.86
2021-10-25 02:22:00,,0823.9,4.99,0.00,29.9,29.1,00.0,39.0,31.6,11.3,0000.0,0009.91,0003.26,0001.86
2021-10-25 02:23:00,,0824.0,4.99,0.00,29.9,29.1,00.0,39.0,31.6,11.3,0000.0,0009.18,0003.24,0001.86
2021-10-25 02:24:00,,0824.0,5.00,0.00,29.9,29.1,00.0,39.0,31.7,11.3,0000.0,0009.05,0003.22,0001.85
2021-10-25 02:25:00,,0824.0,5.00,0.00,29.9,29.1,00.0,39.0,31.7,11.3,0000.0,0008.71,0003.20,0001.85
2021-10-25 02:26:00,,0824.0,5.00,0.00,29.9,29.1,00.0,39.0,31.7,11.3,0000.0,0008.84,0003.17,0001.84
2021-10-25 02:27:00,,0824.0,5.01,0.00,29.9,29.2,00.0,39.0,31.7,11.3,0000.0,0008.84,0003.16,0001.84
2021-10-25 02:28:00,,0824.0,5.00,0.00,29.9,29.2,00.0,39.0,31.8,11.3,0000.0,0008.83,0003.16,0001.85
2021-10-25 02:29:00,,0824.1,5.00,0.00,30.0,29.2,00.0,39.0,31.8,11.3,0000.0,0008.82,0003.17,0001.84
2021-10-25 02:30:00,,0824.1,5.00,0.00,30.0,29.2,00.0,39.0,31.7,11.2,0000.0,0009.34,0003.18,0001.83
2021-10-25 02:31:00,,0824.1,5.01,0.00,30.0,29.2,00.0,39.0,31.8,11.3,0000.0,0009.85,0003.17,0001.84
2021-10-25 02:32:00,,0824.1,5.00,0.00,30.0,29.3,00.0,39.0,31.7,11.3,0000.0,0009.93,0003.19,0001.86
2021-10-25 02:33:00,,0824.1,4.99,0.00,30.0,29.3,00.0,39.0,31.8,11.3,0000.0,0009.18,0003.17,0001.86
2021-10-25 02:34:00,,0824.1,5.00,0.00,30.0,29.3,00.0,39.0,31.8,11.2,0000.0,0009.25,0003.20,0001.86
2021-10-25 02:35:00,,0824.1,5.01,0.00,30.0,29.3,00.0,39.0,31.8,11.2,0000.0,0009.34,0003.20,0001.87
2021-10-25 02:36:00,,0824.1,4.99,0.00,30.0,29.3,00.0,39.0,31.8,11.2,0000.0,0010.03,0003.22,0001.88
2021-10-25 02:37:00,,0824.1,5.01,0.00,30.1,29.3,00.0,39.1,31.8,11.2,0000.0,0010.23,0003.25,0001.89
2021-10-25 02:38:00,,0824.1,4.98,0.00,30.1,29.3,00.0,39.1,31.8,11.2,0000.0,0009.86,0003.22,0001.88
2021-10-25 02:39:00,,0824.1,5.00,0.00,30.1,29.3,00.0,39.1,31.9,11.2,0000.0,0011.20,0003.22,0001.87
2021-10-25 02:40:00,,0824.1,5.01,0.00,30.1,29.3,00.0,39.1,31.9,11.2,0000.0,0012.33,0003.21,0001.88
2021-10-25 02:41:00,,0824.1,4.99,0.00,30.1,29.4,00.0,39.1,31.9,11.2,0000.0,0012.75,0003.18,0001.90
2021-10-25 02:42:00,,0824.1,5.01,0.00,30.1,29.4,00.0,39.1,31.9,11.2,0000.0,0012.50,0003.21,0001.91
2021-10-25 02:43:00,,0824.1,4.99,0.00,30.1,29.4,00.0,39.1,31.9,11.2,0000.0,0012.64,0003.20,0001.90
2021-10-25 02:44:00,,0824.1,4.98,0.00,30.1,29.3,00.0,39.1,31.9,11.2,0000.0,0013.33,0003.21,0001.90
2021-10-25 02:45:00,,0824.1,5.01,0.00,30.1,29.3,00.0,39.1,31.9,11.2,0000.0,0013.57,0003.21,0001.91
2021-10-25 02:46:00,,0824.1,5.01,0.00,30.1,29.3,00.0,39.2,31.9,11.2,0000.0,0013.55,0003.22,0001.91
2021-10-25 02:47:00,,0824.0,4.99,0.00,30.1,29.3,00.0,39.2,31.9,11.2,0000.0,0013.45,0003.21,0001.91
2021-10-25 02:48:00,,0824.1,4.99,0.00,30.1,29.3,00.0,39.1,31.9,11.2,0000.0,0013.15,0003.20,0001.93
2021-10-25 02:49:00,,0824.0,5.01,0.00,30.1,29.2,00.0,39.1,31.8,11.2,0000.0,0013.82,0003.28,0001.95
2021-10-25 02:50:00,,0824.0,5.00,0.00,30.0,29.2,00.0,39.1,31.7,11.3,0000.0,0013.10,0003.31,0001.97
2021-10-25 02:51:00,,0823.9,5.00,0.00,30.0,29.1,00.0,39.1,31.7,11.3,0000.0,0011.62,0003.29,0001.97
2021-10-25 02:52:00,,0823.9,5.01,0.00,30.0,29.1,00.0,39.1,31.7,11.3,0000.0,0010.97,0003.27,0001.96
2021-10-25 02:53:00,,0824.0,4.99,0.00,29.9,29.1,00.0,39.1,31.6,11.3,0000.0,0010.99,0003.31,0001.96
2021-10-25 02:54:00,,0824.0,5.00,0.00,29.9,29.0,00.0,39.1,31.6,11.3,0000.0,0011.86,0003.35,0001.97
2021-10-25 02:55:00,,0824.0,5.00,0.00,29.9,29.0,00.0,39.1,31.6,11.4,0000.0,0012.05,0003.34,0001.96
2021-10-25 02:56:00,,0824.0,4.99,0.00,29.9,29.0,00.0,39.1,31.6,11.4,0000.0,0012.09,0003.35,0001.97
2021-10-25 02:57:00,,0824.0,5.00,0.00,29.8,29.0,00.0,39.0,31.5,11.4,0000.0,0012.37,0003.34,0001.99
2021-10-25 02:58:00,,0824.0,5.00,0.00,29.8,29.0,00.0,39.0,31.5,11.4,0000.0,0012.41,0003.36,0002.01
2021-10-25 02:59:00,,0824.0,5.01,0.00,29.8,29.0,00.0,39.0,31.5,11.4,0000.0,0012.63,0003.38,0002.01
